Flag for Germany Weather past 2 weeks in Emden, Lower Saxony, Germany

Now
56 °F

Fog.


Feels Like: 56 °F
Forecast: 48 / 67 °F
Wind: 3 mph from Northeast

Location: Emden-Koenigspolder


UV Index: 0 (Low)

Visibility: 4 mi


Pressure: 30.15 "Hg

Humidity: 94%

Dew point: 54 °F

Location of EmdenLocation

Historic Weather in Emden

°F

Emden temperature yesterday

Maximum temperature yesterday: 65 °F (at 3:00 PM)
Minimum temperature yesterday: 46 °F (at 6:00 AM)
Average temperature yesterday: 56 °F

Past Weeks' High & Low Weather Summary

 TemperatureHumidityPressure
High68 °F (Apr 20, 3:00 PM)100% (Apr 12, 1:00 AM)30.46 "Hg (Apr 12, 1:00 AM)
Low31 °F (Apr 16, 7:00 AM)38% (Apr 17, 3:00 PM)29.70 "Hg (Apr 21, 7:00 PM)
Average50 °F80%30.04 "Hg
* Reported Apr 8 9:00 PM — Apr 23 9:00 PM, Emden, Weather by CustomWeather, © 2014

Note: Actual official high and low records may vary slightly from our data, if they occured in-between our weather recording intervals... More about our weather records

Advertising

Historic Weather Conditions — Data for Previous 24 hours

 ConditionsComfort  
Time TempWeatherWind HumidityBarometerVisibility
9:00 PM
Apr 23
56 °FFog.2 mph92%30.13 "Hg3 mi
8:00 PM59 °FOvercast.3 mph87%30.11 "Hg4 mi
7:00 PM62 °FOvercast.6 mph81%30.11 "Hg4 mi
6:00 PM63 °FPartly sunny.6 mph75%30.11 "Hg5 mi
5:00 PM65 °FPassing clouds.6 mph68%30.11 "Hg6 mi
4:00 PM67 °FOvercast.3 mph53%30.12 "Hg14 mi
3:00 PM66 °FOvercast.3 mph53%30.13 "Hg14 mi
2:00 PM67 °FSunny.5 mph57%30.13 "Hg12 mi
1:00 PM65 °FPartly sunny.5 mph53%30.12 "Hg16 mi
12:00 PM64 °FPassing clouds.3 mph70%30.13 "Hg11 mi
11:00 AM61 °FFog.2 mph89%30.12 "Hg4 mi
10:00 AM57 °FFog.2 mph95%30.11 "Hg2 mi
9:00 AM52 °FSunny.1 mph100%30.10 "Hg1 mi
8:00 AM45 °FSunny.1 mph100%30.09 "Hg1 mi
7:00 AM41 °FSunny.1 mph99%30.08 "Hg0 mi
6:00 AM40 °FClear.1 mph100%30.06 "Hg0 mi
5:00 AM41 °FClear.1 mph99%30.05 "Hg0 mi
4:00 AM41 °FDuststorm.1 mph98%30.04 "Hg0 mi
3:00 AM43 °FPassing clouds.1 mph97%30.03 "Hg0 mi
2:00 AM48 °FClear.1 mph98%30.03 "Hg0 mi
1:00 AM50 °FClear.1 mph97%30.02 "Hg1 mi
12:00 AM51 °FPassing clouds.1 mph95%30.00 "Hg1 mi
11:00 PM
Apr 22
53 °FFog.3 mph94%29.99 "Hg2 mi
10:00 PM55 °FFog.3 mph89%29.98 "Hg3 mi
Weather by CustomWeather, © 2014

See weather overview